Location: Asis
(14.1331°N, 120.9056°E)
Time: 09:32:16
(UTC+00:00)

CZ-2D R/B - Pass Details

Date: 15 January 2026
Orbit: 525 x 595 km, 98.0° (Epoch: 8 February)

Event Time Altitude Azimuth Distance (km) Brightness Sun altitude
Rises 10:26:07 0° 157° (SSE) 2,721 6.8 -9.7°
Reaches altitude 10° 10:28:19 10° 151° (SSE) 1,816 5.9 -10.2°
Maximum altitude 10:32:05 47° 78° (ENE) 720 3.5 -11.0°
Drops below altitude 10° 10:35:47 10° 3° (N) 1,783 5.7 -11.9°
Sets 10:37:55 0° 357° (N) 2,665 6.7 -12.4°
